User: anonymous   Login
Location: ??????
(55.6130°N, 37.7882°E)
Time: 17:35:07
(UTC+00:00)
Language:

CZ-2C R/B - Orbit

View from above orbital plane
View from above orbital plane
View from above satellite
View from above satellite

Ground track
Ground track

The orbit data is extracted from the following two-line orbital elements,

1 31114U 07010B   24176.93758372  .00000156  00000-0  91533-4 0  9999
2 31114  98.3338 312.5514 0058379 306.5351  53.0459 14.19799351891331
Epoch (UTC): 24 June 2024 22:30:07
Eccentricity: 0.0058379
inclination: 98.3338°
perigee height: 784 km
apogee height: 868 km
right ascension of ascending node: 312.5514°
argument of perigee: 306.5351°
revolutions per day: 14.19799351
mean anomaly at epoch: 53.0459°
orbit number at epoch: 89133

The dashed part of the orbit path shows where the satellite is in the earth's shadow,  

DLR